Starlink 11554

operational
NORAD ID: 62833 Int'l Des: 2025-019 Owner: SPXS Country: US Constellation: starlink
LEOCIRCULAR

关于 Starlink 11554

正在加载描述...

实时位置

正在加载3D地球...

即将过境

高度历史

Altitude vs Time

uPlot chart will show altitude changes over time

两行轨道根数

1 62833U 25019E 25257.28661650 .00172047 00000-0 13095-2 0 9995
2 62833 42.9987 289.5932 0001757 238.9904 121.0791 15.70970740 36130
Epoch: Sep 14, 2025 • Age: 31 hours

当前状态

高度 355.6 km
速度 7.70 km/s
星下点 24.63°N, 113.13°E
发射日期 Jan 27, 2025
运行时间 0.6 years
类型 internet

技术详情

分类 Payload
质量 960.00 kg
干质量 910.00 kg
总质量 960.00 kg
长度 0.30 m
直径 4.10 m
跨度 29.00 m
形状 Box + pan
制造商 SPXS
平台类型 Starlink V2MD
阶段状态 In Orbit
所有者/国家 SPXS/US

大型星座

Loading constellations...